This is the latest recevied weather packets stored in our database for station/object KC5DAQ-25. If no packets are shown the sender has not sent any weather packets the latest 10 day(s).
| Time | Temp. | Humidity | Pressure | Rain* | Wind** | Luminosity | Snow |
|---|---|---|---|---|---|---|---|
| 1777667503 | 16.11° C | 90% | 1002.1 hPa | 2.29 mm | - | 16 W/m² | - |
| 1777667444 | 16.11° C | 90% | 1002.1 hPa | 2.29 mm | - | 16 W/m² | - |
| 1777667384 | 16.11° C | 90% | 1002.1 hPa | 2.79 mm | - | 16 W/m² | - |
| 1777667323 | 16.11° C | 90% | 1002.2 hPa | 2.79 mm | - | 16 W/m² | - |
| 1777667263 | 16.11° C | 90% | 1002.2 hPa | 2.79 mm | - | 16 W/m² | - |
| 1777667203 | 16.11° C | 90% | 1002.1 hPa | 3.05 mm | - | 16 W/m² | - |
| 1777667144 | 16.11° C | 90% | 1002 hPa | 3.05 mm | - | 21 W/m² | - |
| 1777667083 | 16.11° C | 90% | 1002.1 hPa | 3.3 mm | - | 21 W/m² | - |
| 1777667023 | 16.11° C | 90% | 1002 hPa | 3.3 mm | - | 23 W/m² | - |
| 1777666964 | 16.67° C | 90% | 1002 hPa | 3.3 mm | - | 23 W/m² | - |
| 1777666903 | 16.67° C | 90% | 1002 hPa | 3.3 mm | - | 23 W/m² | - |
| 1777666844 | 16.67° C | 90% | 1002 hPa | 3.3 mm | - | 23 W/m² | - |
| 1777666783 | 16.67° C | 90% | 1002 hPa | 3.3 mm | - | 28 W/m² | - |
| 1777666726 | 16.67° C | 90% | 1002 hPa | 3.3 mm | - | 28 W/m² | - |
| 1777666665 | 16.67° C | 90% | 1002 hPa | 3.05 mm | - | 28 W/m² | - |
| 1777666604 | 16.67° C | 90% | 1002 hPa | 3.05 mm | - | 35 W/m² | - |
| 1777666545 | 16.67° C | 90% | 1001.9 hPa | 3.05 mm | - | 35 W/m² | - |
| 1777666483 | 16.67° C | 90% | 1001.8 hPa | 3.05 mm | - | 35 W/m² | - |
| 1777666424 | 16.67° C | 90% | 1001.7 hPa | 3.05 mm | - | 33 W/m² | - |
| 1777666363 | 16.67° C | 90% | 1001.8 hPa | 3.05 mm | - | 33 W/m² | - |
| 1777666304 | 16.67° C | 90% | 1001.7 hPa | 3.05 mm | - | 37 W/m² | - |
| 1777666243 | 16.67° C | 90% | 1001.6 hPa | 3.05 mm | - | 41 W/m² | - |
| 1777666184 | 16.67° C | 90% | 1001.5 hPa | 3.05 mm | - | 41 W/m² | - |
| 1777666124 | 16.67° C | 90% | 1001.4 hPa | 3.05 mm | - | 41 W/m² | - |
| 1777666064 | 16.67° C | 90% | 1001.3 hPa | 2.79 mm | - | 42 W/m² | - |
* Rain latest hour (hover to see other rain measurements)
** Current wind speed in m/s (hover to see current wind gust speed)